Wind_Speed
18 17 17 17 17 17 17 17 16 16 16 16 16 15 15 15 15 14 13 12 12 12 11 11 11 10 10 9 9 9 8 8 7 7 6 5 5 4 4 4 3 3 2
20 19 19 18 19 18 18 18 17 18 18 18 17 17 17 17 17 16 15 14 14 13 13 13 13 12 12 11 11 10 9 9 8 8 7 7 6 6 5 5 4 4 3
21 21 21 21 21 20 20 20 19 19 19 19 19 18 19 18 18 18 17 17 16 16 15 15 14 14 13 12 12 11 11 10 10 9 8 8 7 7 6 6 5 5 5
22 22 23 23 23 23 23 22 22 22 21 21 21 20 20 20 19 19 18 18 17 17 16 15 15 15 14 14 13 13 12 12 11 10 10 9 9 8 7 7 6 6 5
23 24 24 25 25 25 25 25 25 24 24 23 23 22 21 22 21 21 20 19 18 18 18 18 17 16 16 15 15 14 13 13 13 12 11 11 10 9 8 8 8 7 6
26 26 26 26 27 27 27 27 27 27 27 26 25 25 24 24 24 23 22 21 21 20 20 19 19 18 18 17 17 16 15 14 14 13 12 12 12 11 10 9 9 9 8
28 28 28 28 29 29 29 29 29 29 29 28 28 27 26 26 25 25 25 24 23 23 22 21 21 19 19 19 19 18 17 17 16 15 14 14 13 12 12 11 11 10 10
30 30 30 30 30 31 31 31 30 30 30 30 30 29 28 28 27 27 26 26 25 24 24 23 23 22 21 21 20 20 19 19 18 17 16 15 15 14 13 12 12 12 11
31 31 32 31 32 32 33 33 33 33 32 31 31 30 30 29 29 29 28 27 27 26 26 25 24 24 24 23 22 22 22 21 20 19 18 17 17 16 15 14 13 12 13
32 33 33 33 33 33 34 34 34 34 34 35 34 33 33 32 31 31 30 30 29 29 28 27 27 26 25 25 24 24 23 22 22 21 20 19 19 18 17 16 15 14 14
34 35 35 35 35 34 35 35 35 36 36 37 37 36 36 35 33 32 32 31 31 31 30 30 29 28 27 27 26 26 25 25 24 24 23 22 21 20 19 18 18 17 16
36 36 37 36 36 36 36 36 37 37 38 38 38 38 37 37 36 34 33 33 33 33 32 31 31 30 29 29 29 28 27 27 27 26 25 24 23 22 22 21 20 19 18
36 37 37 37 37 37 37 38 38 38 39 39 40 40 39 39 39 37 36 35 35 34 34 33 33 32 32 31 30 30 30 29 28 28 27 26 25 24 24 22 22 21 20
36 37 37 38 38 38 38 39 39 39 40 40 41 41 41 41 40 40 38 37 37 36 36 35 35 34 34 34 33 32 32 31 31 30 29 29 28 26 26 24 23 22 22
36 36 37 37 38 38 39 40 40 40 41 41 42 42 43 42 41 41 40 39 38 37 37 37 37 36 35 35 35 34 34 33 33 32 31 31 30 29 28 27 26 24 24
36 37 38 38 38 39 40 41 41 42 42 42 43 43 43 44 43 42 42 41 40 39 39 39 39 38 37 37 37 36 36 35 35 34 34 33 32 31 30 29 28 27 26
38 39 39 39 39 39 40 41 42 43 44 43 44 45 45 45 45 44 44 44 43 42 41 41 41 40 39 39 39 38 37 37 35 36 35 35 34 34 33 31 30 29 28
39 39 40 40 39 40 41 42 42 43 44 45 45 45 46 47 47 47 46 46 46 45 45 44 43 42 41 41 41 41 39 39 38 37 37 36 36 36 35 34 33 32 31
39 40 40 40 40 40 41 41 42 43 44 44 45 46 47 48 49 49 48 48 48 48 47 47 46 45 44 43 42 43 42 41 40 39 39 38 38 37 37 36 35 34 33
40 40 40 40 40 39 40 40 40 42 43 44 45 46 47 48 49 50 50 50 50 50 49 48 48 47 46 45 45 44 43 43 42 42 41 40 40 39 39 38 37 36 35
40 41 40 40 39 39 40 41 41 41 43 44 45 46 48 49 50 51 52 52 51 51 51 49 49 49 48 47 47 46 45 44 43 43 42 41 42 41 41 40 39 39 38
41 41 41 40 40 40 41 42 43 43 43 45 46 47 48 50 50 51 52 54 53 53 53 52 51 50 49 49 48 47 47 47 45 44 44 43 43 43 42 42 42 41 40
41 41 42 41 42 42 41 42 43 43 43 44 46 48 49 50 51 51 52 53 54 54 53 54 53 52 51 50 50 49 48 48 47 47 46 45 44 44 43 43 43 42 41
41 41 42 42 42 42 42 42 42 43 44 44 46 47 48 49 50 52 52 53 54 55 54 54 54 54 53 52 51 51 50 49 49 48 47 47 46 45 44 44 43 43 43
41 41 41 42 41 42 43 42 42 43 44 44 45 45 46 48 49 49 51 52 53 54 55 55 55 55 54 53 53 52 51 50 50 50 49 48 47 47 46 45 44 44 44
41 41 41 41 41 42 42 42 43 43 44 44 45 45 46 47 48 49 49 50 52 53 54 55 56 56 55 55 54 53 53 51 50 51 50 49 49 49 47 46 45 46 46
Wind_Direction
247 244 243 243 243 244 244 241 240 238 237 237 236 234 232 233 235 236 236 235 237 236 234 234 232 229 225 222 220 221 223 226 224 221 223 222 220 219 215 216 221 221 221
248 247 246 246 245 245 244 243 243 242 241 240 240 239 237 236 236 236 236 236 235 236 236 236 235 232 229 226 224 223 222 224 226 227 230 229 229 228 222 219 224 228 226
247 247 248 248 247 247 246 246 246 245 244 242 241 240 239 238 237 238 237 237 236 236 237 237 237 235 232 230 227 225 225 228 230 232 233 233 233 233 231 227 229 234 230
249 248 249 249 249 248 247 246 247 246 245 244 243 242 240 239 239 239 239 239 238 237 237 237 237 237 235 234 232 230 230 233 235 236 235 236 236 237 235 232 232 236 232
250 250 251 251 250 250 249 247 247 247 246 244 243 243 243 241 240 240 239 239 238 238 238 237 238 238 236 235 234 234 234 235 238 239 238 238 238 238 236 233 233 234 231
251 252 252 252 252 251 251 250 248 247 247 245 244 243 243 243 242 241 240 240 241 242 242 238 238 237 237 236 234 235 237 237 238 239 240 241 238 237 237 236 235 234 232
252 252 252 252 251 251 251 249 247 246 246 246 245 244 244 243 243 243 242 241 242 243 243 241 239 239 239 237 236 237 238 238 238 240 242 242 239 238 238 238 238 238 237
255 254 253 252 252 251 249 248 247 247 245 245 244 243 244 243 242 243 243 242 242 242 243 242 240 238 239 239 239 239 239 239 239 241 241 241 240 239 239 238 240 240 240
256 255 253 253 252 251 250 249 248 248 246 244 243 243 243 243 243 243 243 244 243 243 243 243 241 239 239 238 238 240 240 240 240 241 242 242 240 240 241 242 243 243 243
258 256 254 253 252 251 250 250 249 248 247 247 246 244 244 243 244 244 243 244 245 244 244 243 242 241 240 239 239 240 240 240 240 241 242 243 243 242 243 244 244 245 245
258 257 255 254 253 252 252 251 250 248 248 248 248 247 247 245 244 244 245 245 245 245 244 243 242 242 241 241 240 240 241 241 241 242 242 242 243 244 244 245 245 245 246
257 256 255 254 253 253 252 251 251 249 248 248 248 247 246 245 245 245 245 244 245 246 245 244 243 242 242 243 242 242 242 242 243 241 242 242 242 245 246 246 245 244 245
257 256 255 254 253 252 251 251 250 250 249 249 248 248 246 246 245 245 245 244 245 245 244 244 244 242 243 243 243 243 242 242 244 243 243 242 242 244 245 246 244 244 246
257 256 256 255 254 253 252 252 251 249 249 247 247 248 248 246 246 246 245 244 245 245 244 243 243 242 242 242 242 243 242 242 243 244 243 243 243 243 244 245 245 245 246
257 257 257 257 256 255 253 252 253 251 249 247 247 248 248 246 246 246 245 244 244 244 244 244 243 242 242 243 243 243 243 244 244 244 245 244 243 242 243 244 245 244 246
259 259 258 258 258 256 255 254 253 251 251 249 248 248 248 247 246 246 246 245 244 244 245 244 243 243 242 243 243 243 243 244 245 245 244 244 243 243 242 243 244 244 246
260 260 259 259 258 257 256 255 254 252 251 250 250 250 249 248 247 247 247 245 245 245 244 245 244 244 244 244 244 244 243 243 244 245 244 244 244 244 244 243 243 244 245
262 261 261 259 258 258 257 256 254 253 252 252 251 250 248 247 248 248 247 247 246 246 245 244 245 244 245 245 245 244 244 243 243 244 244 245 246 246 245 245 244 244 246
262 262 262 261 260 259 259 257 255 253 253 253 253 251 249 248 248 247 247 247 247 246 245 245 244 243 244 245 245 245 244 244 243 243 244 244 245 245 245 245 245 246 248
262 262 262 263 262 261 259 259 257 255 253 253 253 252 250 249 248 248 248 247 247 245 245 245 244 244 245 246 246 245 245 244 244 244 244 243 243 244 244 245 246 246 248
262 263 262 262 261 260 259 259 258 256 254 253 253 251 250 250 249 249 248 247 246 245 245 245 245 244 244 245 245 245 245 244 245 244 244 244 243 244 244 245 246 248 248
263 262 261 261 260 260 260 259 257 257 256 255 253 252 251 251 251 250 249 247 247 246 245 244 245 245 244 244 244 244 244 244 243 244 243 244 245 245 245 246 246 248 249
263 262 261 260 261 260 259 258 258 257 257 256 255 253 253 252 251 250 248 246 246 245 244 244 244 244 244 244 244 244 244 245 244 243 244 243 245 246 245 246 247 248 249
264 262 262 262 261 261 260 259 257 256 256 256 255 255 254 254 254 252 250 247 245 245 244 243 243 243 244 244 245 244 244 244 244 243 244 243 244 246 246 246 247 248 248
263 262 262 262 261 261 260 260 258 257 257 256 256 256 256 255 254 252 251 248 246 245 244 243 243 242 243 244 245 244 244 244 243 243 243 244 244 245 246 247 247 248 249
262 262 262 262 261 261 261 260 260 260 259 258 257 257 258 256 255 253 251 250 247 245 244 243 243 242 243 244 244 244 244 244 243 243 243 244 245 246 247 248 249 250 250
Height
5826 5827 5827 5828 5829 5830 5830 5831 5832 5832 5833 5834 5835 5836 5836 5837 5838 5839 5839 5840 5841 5841 5842 5843 5843 5844 5844 5845 5845 5846 5846 5847 5847 5847 5848 5848 5848 5848 5848 5848 5848 5848 5848
5823 5823 5824 5825 5825 5826 5827 5828 5829 5829 5830 5831 5832 5832 5833 5834 5835 5836 5837 5838 5838 5839 5840 5840 5841 5842 5842 5843 5843 5844 5845 5845 5846 5846 5846 5847 5847 5847 5847 5847 5848 5848 5847
5818 5819 5820 5821 5822 5822 5823 5824 5825 5826 5826 5827 5828 5829 5830 5831 5832 5833 5834 5835 5836 5836 5837 5838 5838 5839 5840 5841 5841 5842 5843 5843 5844 5845 5845 5845 5845 5846 5846 5846 5846 5847 5847
5814 5815 5816 5816 5817 5818 5819 5820 5821 5822 5823 5823 5824 5825 5826 5827 5828 5829 5831 5832 5833 5834 5835 5835 5836 5837 5838 5839 5839 5840 5841 5841 5842 5843 5843 5844 5844 5844 5845 5845 5845 5846 5846
5809 5810 5811 5811 5812 5813 5814 5815 5816 5817 5818 5819 5820 5821 5822 5823 5824 5826 5827 5828 5829 5830 5832 5832 5833 5834 5835 5836 5837 5838 5839 5839 5840 5841 5841 5842 5842 5843 5843 5843 5844 5844 5844
5803 5804 5805 5806 5806 5807 5808 5809 5810 5811 5813 5814 5815 5816 5818 5819 5820 5821 5823 5824 5825 5826 5828 5829 5830 5831 5832 5833 5834 5835 5836 5837 5838 5839 5839 5840 5840 5841 5841 5842 5842 5843 5843
5796 5797 5798 5799 5800 5801 5802 5803 5804 5805 5807 5808 5809 5811 5812 5814 5815 5816 5818 5819 5821 5822 5823 5825 5826 5828 5829 5830 5831 5832 5833 5834 5835 5836 5837 5837 5838 5838 5839 5840 5840 5841 5841
5789 5790 5791 5792 5793 5794 5795 5796 5797 5799 5800 5802 5803 5805 5806 5808 5809 5811 5813 5814 5816 5817 5819 5820 5822 5823 5825 5826 5827 5828 5830 5831 5832 5833 5834 5835 5835 5836 5836 5837 5838 5838 5839
5782 5783 5784 5785 5786 5787 5788 5789 5790 5792 5793 5795 5796 5798 5800 5802 5803 5805 5807 5809 5811 5812 5814 5815 5817 5819 5820 5822 5823 5824 5826 5827 5828 5829 5831 5831 5832 5833 5834 5834 5835 5836 5837
5774 5775 5776 5777 5778 5779 5780 5781 5783 5784 5786 5787 5789 5791 5792 5794 5796 5798 5800 5803 5805 5806 5808 5810 5812 5814 5815 5817 5818 5820 5821 5823 5824 5825 5827 5828 5829 5830 5830 5831 5832 5833 5834
5766 5767 5768 5769 5770 5771 5772 5773 5775 5776 5777 5779 5781 5783 5785 5787 5789 5791 5794 5796 5798 5800 5802 5804 5806 5808 5810 5811 5813 5815 5816 5818 5819 5821 5822 5824 5825 5826 5827 5828 5829 5830 5830
5757 5758 5759 5760 5761 5762 5763 5764 5766 5767 5768 5770 5772 5774 5776 5779 5781 5783 5786 5788 5791 5793 5795 5797 5800 5802 5803 5805 5807 5809 5811 5812 5814 5815 5817 5819 5820 5822 5823 5824 5825 5826 5827
5748 5749 5749 5751 5751 5753 5754 5755 5756 5758 5759 5761 5763 5765 5768 5770 5772 5775 5778 5780 5783 5785 5788 5790 5792 5795 5797 5799 5801 5803 5805 5807 5808 5810 5812 5814 5815 5817 5818 5819 5820 5821 5823
5739 5739 5740 5741 5742 5743 5744 5745 5747 5748 5750 5751 5753 5756 5758 5761 5763 5766 5769 5772 5775 5777 5779 5782 5785 5787 5790 5792 5794 5796 5798 5800 5802 5804 5806 5808 5810 5811 5813 5814 5815 5817 5818
5730 5730 5731 5731 5732 5733 5734 5735 5737 5738 5740 5741 5744 5746 5748 5751 5754 5757 5760 5763 5766 5768 5771 5774 5776 5779 5782 5784 5786 5789 5791 5793 5795 5797 5800 5802 5804 5806 5807 5809 5810 5812 5813
5721 5721 5721 5721 5722 5723 5724 5725 5726 5727 5729 5731 5733 5735 5738 5741 5744 5747 5750 5753 5756 5759 5762 5765 5767 5770 5773 5776 5778 5781 5783 5786 5788 5790 5792 5795 5797 5799 5801 5803 5805 5806 5808
5711 5711 5711 5711 5712 5712 5713 5714 5715 5716 5718 5720 5722 5724 5727 5730 5733 5736 5740 5743 5746 5749 5752 5755 5758 5761 5764 5767 5770 5772 5775 5778 5780 5783 5785 5787 5790 5792 5794 5796 5798 5800 5802
5701 5701 5701 5701 5701 5702 5702 5702 5703 5705 5706 5708 5710 5712 5715 5718 5722 5725 5729 5732 5735 5738 5741 5745 5748 5751 5754 5757 5760 5763 5766 5769 5772 5775 5777 5779 5782 5784 5787 5789 5791 5793 5795
5690 5690 5690 5690 5690 5690 5690 5691 5692 5693 5694 5696 5698 5701 5703 5707 5710 5714 5717 5720 5723 5726 5730 5733 5737 5740 5744 5747 5751 5754 5757 5760 5763 5766 5769 5771 5774 5777 5779 5782 5784 5786 5788
5680 5679 5679 5679 5679 5680 5680 5680 5681 5682 5683 5685 5687 5689 5692 5694 5698 5701 5705 5708 5711 5714 5718 5722 5726 5729 5733 5737 5740 5744 5747 5750 5753 5757 5760 5762 5765 5768 5771 5773 5776 5778 5781
5669 5668 5668 5668 5668 5669 5669 5669 5670 5671 5672 5674 5675 5677 5680 5682 5685 5688 5691 5695 5698 5702 5706 5710 5714 5718 5722 5725 5729 5733 5737 5740 5743 5747 5750 5753 5756 5759 5762 5765 5767 5770 5772
5657 5657 5657 5657 5657 5657 5657 5658 5658 5659 5660 5662 5664 5665 5667 5669 5672 5675 5678 5682 5685 5689 5693 5698 5702 5706 5710 5714 5718 5722 5726 5730 5733 5737 5740 5743 5746 5749 5753 5756 5758 5761 5763
5646 5646 5646 5646 5645 5645 5645 5646 5646 5647 5648 5650 5651 5653 5655 5656 5659 5661 5664 5668 5672 5676 5681 5685 5690 5694 5699 5703 5707 5711 5715 5719 5723 5727 5730 5733 5737 5740 5743 5746 5749 5751 5754
5635 5634 5634 5634 5633 5633 5633 5633 5634 5635 5636 5637 5639 5640 5642 5644 5645 5648 5651 5654 5658 5663 5668 5672 5677 5682 5686 5690 5695 5699 5704 5708 5712 5716 5720 5723 5726 5730 5733 5736 5739 5742 5744
5623 5623 5622 5622 5621 5621 5621 5621 5621 5622 5623 5624 5626 5628 5629 5631 5632 5634 5637 5641 5645 5649 5654 5659 5664 5668 5673 5678 5682 5687 5691 5696 5700 5704 5709 5713 5716 5719 5723 5726 5728 5731 5734
5611 5611 5611 5610 5610 5609 5609 5608 5609 5609 5610 5612 5613 5615 5616 5618 5619 5621 5624 5627 5630 5635 5640 5645 5650 5655 5660 5665 5670 5674 5679 5683 5688 5692 5697 5701 5705 5709 5712 5715 5718 5720 5723